Weather History for LTCG - January, 2013

Change the Weather History Date:

Thursday, January 17, 2013

  Actual Average Record
Temperature  
Mean Temperature 58 °F -  
Max Temperature 70 °F 49 °F 70 °F (2013)
Min Temperature 46 °F 38 °F 33 °F (2008)
Degree Days  
Heating Degree Days 7    
Growing Degree Days 8 (Base 50)    
Moisture  
Dew Point 22 °F    
Average Humidity 25    
Maximum Humidity 54    
Minimum Humidity 5    
Precipitation  
Precipitation 0.00 in - - ()
Sea Level Pressure  
Sea Level Pressure 29.88 in    
Wind  
Wind Speed 8 mph ()    
Max Wind Speed 24 mph    
Max Gust Speed 41 mph    
Visibility 6.5 miles    
Events      
Averages and records for this station are not official NWS values.
T = Trace of Precipitation, MM = Missing Value Source: Averaged Metar Reports

Daily Weather History Graph

Daily Weather History Graph

Search for Another Location

Airport or City:

Trip Planner

Search our weather history database for the weather conditions in past years. The results will help you decide how hot, cold, wet, or windy it might be!

Date:

Astronomy

Jan. 17, 2013 Rise Set
Actual Time 6:42 AM EET 4:19 PM EET
Civil Twilight 6:12 AM EET 4:49 PM EET
Nautical Twilight 5:38 AM EET 5:23 PM EET
Astronomical Twilight 5:05 AM EET 5:56 PM EET
Moon 9:35 AM EET (1/17) 10:53 PM EET (1/17)
Length of Visible Light 10h 37m
Length of Day
9h 36m
Waxing Crescent, 34% of the Moon is Illuminated
Jan 17
Waxing Crescent
Jan 19
First Quarter
Jan 27
Full
Feb 3
Last Quarter
Feb 10
New

Hourly Weather History & Observations

Time (EET) Temp. Dew Point Humidity Pressure Visibility Wind Dir Wind Speed Gust Speed Precip Events Conditions
12:20 AM 53.6 °F 30.2 °F 41% 29.89 in - NNE 4.6 mph - N/A   Clear
12:50 AM 50.0 °F 32.0 °F 50% 29.89 in - NNW 3.5 mph - N/A   Clear
1:20 AM 55.4 °F 21.2 °F 26% 29.89 in - WSW 4.6 mph - N/A   Clear
1:50 AM 57.2 °F 17.6 °F 21% 29.86 in - West 5.8 mph - N/A   Clear
2:00 AM 57 °F 17 °F 11% 29.88 in 12 mi West 5.8 mph - -  
2:20 AM 57.2 °F 19.4 °F 23% 29.86 in - Variable 2.3 mph - N/A   Clear
2:50 AM 57.2 °F 15.8 °F 20% 29.83 in - WSW 10.4 mph - N/A   Clear
3:20 AM 60.8 °F 21.2 °F 22% 29.83 in - Variable 6.9 mph - N/A   Clear
3:50 AM 50.0 °F 30.2 °F 47% 29.83 in - Calm Calm - N/A   Clear
4:20 AM 48.2 °F 32.0 °F 54% 29.83 in - East 4.6 mph - N/A   Clear
4:50 AM 51.8 °F 26.6 °F 38% 29.83 in - Variable 3.5 mph - N/A   Clear
5:20 AM 51.8 °F 24.8 °F 35% 29.83 in - West 3.5 mph - N/A   Clear
5:50 AM 51.8 °F 24.8 °F 35% 29.83 in 6.2 mi Variable 1.2 mph - N/A   Mostly Cloudy
6:20 AM 50.0 °F 24.8 °F 37% 29.80 in 6.2 mi Variable 2.3 mph - N/A   Mostly Cloudy
6:50 AM 51.8 °F 24.8 °F 35% 29.80 in 6.2 mi Variable 2.3 mph - N/A   Mostly Cloudy
7:20 AM 51.8 °F 24.8 °F 35% 29.80 in 6.2 mi ESE 4.6 mph - N/A   Mostly Cloudy
7:50 AM 62.6 °F 8.6 °F 12% 29.80 in 6.2 mi South 9.2 mph - N/A   Mostly Cloudy
8:00 AM 62 °F 8 °F 5% 29.80 in 12 mi South 9.2 mph - -   Partly Cloudy
8:20 AM 68.0 °F 5.0 °F 8% 29.77 in 6.2 mi South 17.3 mph - N/A   Mostly Cloudy
8:50 AM 66.2 °F 5.0 °F 9% 29.77 in 6.2 mi SW 19.6 mph 41.4 mph N/A   Mostly Cloudy
9:20 AM 66.2 °F 8.6 °F 11% 29.77 in 6.2 mi SSW 20.7 mph 32.2 mph N/A   Mostly Cloudy
9:50 AM 66.2 °F 6.8 °F 10% 29.77 in 6.2 mi SSW 24.2 mph - N/A   Mostly Cloudy
10:20 AM 68.0 °F 6.8 °F 9% 29.74 in 6.2 mi SSW 23.0 mph - N/A   Mostly Cloudy
10:50 AM 68.0 °F 14.0 °F 12% 29.77 in 6.2 mi WSW 11.5 mph - N/A   Mostly Cloudy
11:20 AM 64.4 °F 24.8 °F 22% 29.80 in 6.2 mi Variable 10.4 mph - N/A   Mostly Cloudy
11:50 AM 57.2 °F 35.6 °F 44% 29.80 in 6.2 mi West 10.4 mph - N/A   Mostly Cloudy
12:20 PM 59.0 °F 33.8 °F 39% 29.80 in 6.2 mi West 9.2 mph - N/A   Mostly Cloudy
12:50 PM 62.6 °F 17.6 °F 18% 29.80 in 6.2 mi West 8.1 mph 20.7 mph N/A   Mostly Cloudy
1:20 PM 60.8 °F 26.6 °F 27% 29.83 in 6.2 mi Variable 6.9 mph - N/A   Mostly Cloudy
1:50 PM 66.2 °F 15.8 °F 14% 29.83 in 6.2 mi SSW 17.3 mph - N/A   Mostly Cloudy
2:00 PM 66 °F 15 °F 6% 29.84 in 6 mi SSW 17.3 mph - -   Partly Cloudy
2:20 PM 59.0 °F 30.2 °F 34% 29.86 in 6.2 mi West 6.9 mph - N/A   Mostly Cloudy
2:50 PM 59.0 °F 32.0 °F 36% 29.86 in 6.2 mi West 8.1 mph - N/A   Mostly Cloudy
3:20 PM 57.2 °F 33.8 °F 41% 29.89 in 6.2 mi Calm Calm - N/A   Mostly Cloudy
3:50 PM 57.2 °F 26.6 °F 31% 29.92 in 6.2 mi Variable 4.6 mph - N/A   Mostly Cloudy
4:20 PM 59.0 °F 26.6 °F 29% 29.92 in 5.0 mi SSE 6.9 mph - N/A   Mostly Cloudy
4:50 PM 62.6 °F 19.4 °F 19% 29.95 in 6.2 mi SSW 12.7 mph 24.2 mph N/A   Mostly Cloudy
5:20 PM 60.8 °F 24.8 °F 25% 29.98 in 4.3 mi WSW 6.9 mph - N/A   Mostly Cloudy
5:50 PM 60.8 °F 26.6 °F 27% 30.01 in 6.2 mi WSW 6.9 mph - N/A   Mostly Cloudy
6:20 PM 60.8 °F 21.2 °F 22% 30.01 in 6.2 mi SSW 9.2 mph - N/A   Mostly Cloudy
6:50 PM 60.8 °F 21.2 °F 22% 30.01 in 6.2 mi SSW 12.7 mph 26.5 mph N/A   Mostly Cloudy
7:20 PM 60.8 °F 23.0 °F 23% 30.01 in 6.2 mi SSW 12.7 mph - N/A   Mostly Cloudy
7:50 PM 59.0 °F 21.2 °F 23% 30.01 in 6.2 mi SSW 10.4 mph - N/A   Mostly Cloudy
8:00 PM 60 °F 22 °F 13% 30.03 in 12 mi SSW 10.4 mph - -   Partly Cloudy
8:20 PM 59.0 °F 21.2 °F 23% 30.01 in 6.2 mi SSW 15.0 mph - N/A   Mostly Cloudy
8:50 PM 60.8 °F 23.0 °F 23% 30.01 in 6.2 mi SSW 13.8 mph - N/A   Mostly Cloudy
9:20 PM 59.0 °F 23.0 °F 25% 30.01 in 6.2 mi SSW 15.0 mph - N/A   Mostly Cloudy
9:50 PM 59.0 °F 23.0 °F 25% 30.01 in 6.2 mi SSW 15.0 mph - N/A   Mostly Cloudy
10:20 PM 59.0 °F 24.8 °F 27% 30.01 in 6.2 mi SSW 13.8 mph - N/A   Mostly Cloudy
10:50 PM 59.0 °F 23.0 °F 25% 30.04 in 6.2 mi SSW 15.0 mph - N/A   Mostly Cloudy
11:20 PM 59.0 °F 23.0 °F 25% 30.04 in 6.2 mi SSW 13.8 mph - N/A   Mostly Cloudy
11:50 PM 59.0 °F 23.0 °F 25% 30.04 in 6.2 mi SSW 11.5 mph - N/A   Mostly Cloudy